COSMOS 2251 DEB, 36420

Orbit data source: Space-Track

COSMOS 2251 DEB, 36420 is space debris in LEO originally from a launch on Wed, 16 Jun 1993 UTC launched from the Plesetsk Missile And Space Complex (PKMTR). The debris from Iridium 33, an American commercial communications satellite, has been tracked extensively since its accidental collision with the defunct Russian satellite Cosmos 2251 in 2009. This event, occurring at high speed in low Earth orbit (LEO), generated thousands of pieces of space debris, significantly increasing the risk of further collisions. The Iridium 33 debris cloud has impacted space traffic management and orbital debris mitigation strategies, making it a subject of ongoing study in space situational awareness.

Loading next visibility...
Identifier
36420, 1993-036AZT
Orbit
LEO
Country
Flag of CISCIS
Related business
Manufacturer
Unknown
Mission
Spacecraft
Bus & Motor
Unknown
Mass
Unknown
Launch date (UTC)
1993-06-16 (33 years ago)
Launch vehicle
Unknown
Launch site
Plesetsk Missile And Space Complex (PKMTR)
Object type
Payload
Rocket body
Debris
Shape & HBR
Unknown shape, 0.1 m
Radar Cross Section
Small (<0.1 m²)

Expand to show TLE details & history
Last TLE update: 1 day ago

TLE from 1 day ago
0 COSMOS 2251 DEB
1 36420U 93036AZT 26062.52630966  .00000454  00000-0  16170-3 0  9990
2 36420  74.0364 126.9637 0018805 203.2803 221.6905 14.36987286861975
Epoch: 2026-03-03T12:37Z
TLE epoch observation values (Epoch: 2026-03-03T12:37:53.154Z)
Latitude
60.57866°
Longitude
166.48846°
Altitude
788.491 km
Speed
7.46 km/s
True Right ascension
10h 29m 03s
True Declination
60° 25' 55"
Sunlit
Object was in full shadow at epoch
Visualization orbit readout
Latitude
Unknown
Longitude
Unknown
Altitude
Unknown
Speed
Unknown
Apparent Right ascension
Unknown
Apparent Declination
Unknown
Sunlit
N/A
Visualization observer readout
Local Sidereal Time
17:40:09
Azimuth
Unknown
Elevation
Unknown
Doppler factor
Unknown
Orbital elements
Apogee altitude
779.527 km
Perigee altitude
752.658 km
Semi-major axis
7,144.23 km
Eccentricity
0.00188
Inclination
74.0364°
RAAN
126.9637°
Arg. of periapsis
203.2803°
True anomaly
221.54743°
Mean anomaly
221.6905°
Eccentric anomaly
221.61894°
Mean motion
3.59426 °/min
Orbital period
100.16 mins
BSTAR
0.0001617
Loading maneuver chart data...
Computing Atmospheric mass density...

Documentation

Showing up to 5 results
|